Theta_e
351 352 350 351 365 363 364 361 353 356 354 352 350 351 354 353 354 362 347 348 346 347 346 347 346 351 351 350 348 345 343 344 350 346 349 351 347 350 351 350 350 349 350 351 350 350 349 348 342
352 351 348 349 363 365 363 355 357 355 354 351 351 352 354 355 347 348 349 347 348 349 348 349 347 350 351 350 343 344 351 351 350 349 347 344 350 352 351 351 349 345 346 345 347 350 347 343 342
352 350 350 358 360 365 364 356 357 355 352 352 354 350 352 354 348 347 347 347 347 348 348 350 346 347 350 347 347 350 350 351 349 346 347 351 351 351 351 351 347 346 348 347 347 348 346 344 343
353 347 351 362 359 359 357 357 355 355 353 351 351 356 349 347 347 348 348 347 346 346 347 349 350 351 351 351 351 351 350 351 346 347 351 351 351 351 351 350 348 348 350 350 349 346 342 343 342
352 355 359 360 356 356 354 355 354 355 354 353 351 354 353 348 348 348 348 347 346 347 349 350 350 350 351 352 352 351 351 344 344 350 351 351 352 351 350 349 347 348 351 350 346 344 343 343 343
354 355 359 361 355 353 356 353 353 354 354 352 352 353 353 349 347 347 347 348 347 348 348 349 350 350 351 352 352 352 346 341 344 348 349 351 349 347 349 350 351 350 352 349 341 341 342 344 345
353 356 356 354 355 355 357 352 355 355 354 352 349 354 351 348 347 347 347 348 348 349 349 349 349 351 352 352 352 347 345 342 344 346 347 348 347 347 348 347 346 348 350 345 342 342 343 344 344
348 351 355 354 354 358 356 354 352 352 353 347 347 354 353 348 346 346 347 348 348 349 350 350 350 350 350 350 348 345 347 342 345 344 343 342 345 348 349 347 346 344 343 343 344 344 345 346 346
348 356 356 352 353 355 355 356 350 349 351 349 348 348 346 347 346 346 347 347 349 349 348 349 348 350 351 351 350 350 344 342 344 344 343 346 352 351 351 347 346 345 344 345 344 346 346 345 345
357 358 354 349 347 352 356 355 353 353 351 350 350 347 347 346 347 346 347 347 347 348 348 348 347 348 349 348 350 351 349 349 351 351 350 351 350 347 349 348 346 347 347 346 343 345 343 347 349
355 359 351 347 344 349 355 355 352 354 353 350 353 351 348 347 347 347 346 346 346 346 346 347 348 349 348 348 349 349 347 348 350 345 343 345 347 347 349 349 349 348 348 347 349 345 348 349 347
356 353 352 349 344 348 355 354 354 352 348 345 349 348 348 348 348 346 346 346 346 347 347 347 348 349 349 349 348 348 347 347 347 347 337 340 346 346 348 351 349 347 348 344 346 347 346 348 349
356 350 346 347 344 344 351 355 355 353 347 347 349 347 348 348 347 345 344 345 345 347 347 349 349 349 350 349 349 348 348 345 346 344 338 340 346 348 349 349 349 348 348 345 345 346 348 347 350
342 344 341 340 338 346 351 352 353 353 349 350 350 349 348 347 346 346 346 346 346 347 347 349 349 350 350 351 351 349 347 346 345 344 339 337 343 348 348 348 350 352 350 351 347 344 343 342 346
330 329 329 332 335 340 349 356 356 351 350 351 350 349 348 348 346 347 348 348 347 347 348 349 350 350 351 351 350 349 346 345 343 343 333 336 343 347 348 348 349 352 348 347 346 346 346 347 343
326 327 331 330 336 340 349 346 352 351 352 352 350 350 350 349 348 348 348 349 348 347 348 349 349 349 350 350 349 347 345 344 343 343 344 340 344 348 348 350 352 350 348 345 350 351 348 344 335
325 330 329 330 335 345 349 344 345 351 352 353 350 350 350 350 349 348 348 349 349 349 348 348 349 348 349 349 349 346 342 338 343 343 338 342 346 348 349 351 352 349 350 347 351 350 348 344 339
326 327 329 331 333 339 349 346 342 351 353 354 351 350 350 350 349 348 349 349 350 351 351 349 349 350 350 349 349 347 345 343 344 345 348 347 348 349 350 350 349 350 352 347 350 349 343 339 340
323 326 329 330 329 332 337 343 341 347 353 355 353 351 350 349 347 347 349 349 350 351 352 351 351 350 350 349 348 347 345 344 348 351 350 350 349 349 349 352 350 351 351 351 350 348 345 341 338
322 324 328 328 325 326 330 333 336 346 351 353 354 353 351 349 349 349 349 349 350 351 352 352 352 351 349 349 348 347 347 348 351 353 350 348 348 348 349 350 353 352 352 349 349 347 345 341 338
322 322 326 328 325 326 330 332 340 349 350 351 352 352 351 351 351 350 349 350 350 351 352 352 351 351 349 349 350 350 350 351 351 352 353 350 348 349 349 349 350 351 351 352 352 348 346 343 341
324 322 323 325 327 331 332 337 340 345 353 352 352 353 352 352 351 350 350 350 350 351 352 351 352 351 351 350 349 349 348 350 350 351 353 352 348 349 349 348 350 351 353 352 351 348 345 339 339
323 323 324 325 327 328 329 332 335 346 353 354 352 351 352 351 351 351 350 350 350 351 351 351 351 350 350 350 350 350 350 350 352 352 353 352 351 348 350 350 350 351 352 351 348 348 346 340 338
324 324 324 324 326 328 329 330 334 338 348 351 351 351 350 351 350 350 349 350 350 350 350 351 351 350 350 350 350 350 351 351 352 353 353 353 353 352 350 351 352 351 352 351 348 347 347 340 337
324 324 326 325 326 327 328 329 332 333 341 340 349 351 350 348 349 350 351 350 351 351 351 351 350 351 351 351 351 351 351 352 352 352 352 352 351 352 353 350 351 351 351 351 348 347 347 342 338
324 324 323 325 324 324 327 329 331 330 331 338 342 346 349 350 349 348 351 348 348 351 351 351 350 351 351 351 351 351 351 352 352 352 352 351 351 351 351 349 350 350 351 351 349 347 346 344 339
324 326 323 322 321 323 325 327 328 329 330 336 340 344 348 349 350 349 348 348 347 348 350 351 351 351 351 351 351 351 351 351 352 351 351 351 351 352 350 348 348 352 350 351 349 348 347 344 337
322 323 323 324 324 324 324 327 329 333 332 333 338 340 343 346 348 348 350 350 348 347 348 350 350 351 351 351 351 351 351 351 351 351 351 351 351 351 352 348 349 351 350 351 350 348 346 343 340
321 324 323 323 323 322 322 324 328 333 336 334 333 336 339 341 343 345 349 349 348 347 346 349 350 351 351 351 351 352 352 352 352 352 351 351 350 350 350 349 349 350 351 351 351 347 346 343 342
322 323 324 325 327 323 323 323 325 329 333 333 334 335 336 340 341 342 344 346 346 348 347 347 349 350 351 351 351 352 352 352 352 352 352 351 351 350 350 350 349 351 350 350 351 349 346 345 344
Wind_Speed
16 15 12 4 2 2 1 3 2 7 5 2 5 2 6 5 3 5 11 18 28 25 22 21 22 22 23 23 23 24 23 21 18 17 16 14 13 12 11 11 10 10 10 9 10 9 8 7 7
16 13 3 2 2 2 3 2 8 6 6 11 10 7 4 4 4 12 13 25 25 22 20 20 23 22 22 23 24 22 19 18 17 16 14 13 12 11 11 10 9 10 9 9 8 8 8 7 5
16 4 2 2 1 3 3 3 8 11 9 5 4 7 3 4 11 15 20 26 23 21 20 20 23 22 22 22 20 19 18 17 16 14 13 11 10 10 10 10 10 10 8 8 7 7 7 7 5
8 3 3 2 4 2 2 7 14 12 7 4 10 8 5 2 18 13 26 25 23 21 20 21 21 21 20 19 18 18 17 16 15 13 11 10 9 9 9 9 9 9 9 7 6 6 6 6 6
2 1 2 2 2 1 2 9 12 9 6 7 4 6 8 9 12 27 25 25 25 22 21 21 21 19 19 18 16 16 15 14 13 12 10 9 8 8 8 8 8 8 8 7 6 6 6 5 5
2 1 2 2 3 2 4 12 11 7 7 9 11 13 5 11 25 26 25 24 23 23 22 20 20 19 18 16 15 14 13 12 11 10 9 8 7 7 7 6 6 6 6 5 6 6 7 6 7
3 2 1 2 3 0 6 12 7 8 9 6 16 9 5 14 25 25 24 22 22 22 22 20 19 17 15 15 14 13 11 10 9 8 8 7 7 6 7 6 5 5 5 5 6 6 7 7 8
3 2 2 0 1 3 10 8 9 8 6 14 13 6 10 21 27 25 24 22 22 21 21 20 19 17 15 13 12 11 10 9 8 7 6 5 5 5 4 6 6 4 5 6 5 5 6 7 7
2 2 2 1 4 3 13 7 9 8 14 5 7 8 17 30 28 26 24 22 21 20 21 20 20 18 16 13 11 10 9 9 7 6 5 3 2 2 2 4 5 4 6 5 3 3 4 4 4
4 3 3 4 3 4 13 11 13 7 14 6 6 13 29 31 29 28 27 26 24 23 22 21 20 19 16 13 11 10 9 8 7 6 5 3 2 1 1 1 2 3 3 3 1 3 2 4 3
4 4 4 3 3 6 12 9 10 11 13 13 18 22 27 29 28 28 27 27 28 25 23 22 21 19 17 15 13 11 9 9 8 8 7 5 3 2 1 1 0 1 2 3 3 0 1 1 1
5 9 7 4 4 2 12 9 8 13 4 14 17 26 28 25 26 29 28 27 27 25 24 23 22 19 18 15 15 13 12 10 9 8 9 7 5 3 2 2 2 2 2 2 1 1 2 1 1
13 7 4 11 12 7 11 15 12 14 3 15 21 25 24 23 27 28 28 26 25 25 24 24 22 21 19 18 15 15 13 12 11 10 10 9 6 5 4 4 4 4 5 2 1 1 1 3 2
6 9 9 10 13 8 12 12 11 11 12 17 22 26 24 24 30 26 26 26 27 25 25 23 23 22 20 19 18 17 14 13 12 11 11 11 9 7 6 6 4 6 5 4 3 1 1 3 2
9 13 9 12 10 8 9 7 15 10 17 19 22 23 23 22 27 27 28 27 27 26 24 24 24 23 22 21 20 18 15 14 14 13 14 13 11 9 7 6 6 5 7 5 3 1 1 2 1
4 5 8 3 9 7 15 11 17 18 19 20 22 22 22 23 28 28 27 27 27 25 25 24 23 24 23 21 20 19 16 15 15 14 13 13 12 10 10 8 6 7 9 6 6 2 1 2 3
5 10 10 8 10 5 16 9 12 21 21 21 22 23 22 21 25 29 29 29 28 28 26 25 24 25 24 22 20 20 19 19 16 14 16 16 16 13 11 10 8 9 8 6 4 2 2 1 2
11 10 8 9 8 10 16 16 0 19 22 22 22 22 22 23 26 31 30 29 28 27 26 25 25 25 23 21 20 17 17 18 16 16 16 18 19 18 17 15 12 10 6 6 5 1 2 3 2
8 12 10 10 6 8 14 14 12 16 22 21 21 22 23 25 25 28 29 29 27 27 26 27 27 28 25 24 22 21 20 19 17 17 17 17 17 16 17 15 14 10 8 5 4 2 3 2 2
18 17 17 10 7 4 6 10 6 15 23 24 23 23 24 21 20 25 29 31 31 30 30 28 30 30 31 26 25 20 22 20 19 16 16 16 15 16 17 17 14 11 7 8 6 5 3 2 2
23 24 17 8 2 4 5 14 7 11 15 18 22 22 20 23 24 23 28 33 34 33 33 33 34 32 31 27 22 19 14 16 17 18 17 18 19 18 18 19 18 13 11 8 7 7 5 2 2
23 18 17 16 9 11 6 14 7 12 17 18 20 21 23 23 23 23 27 31 35 36 33 32 31 31 31 31 26 28 26 24 25 23 21 21 23 21 20 17 19 17 11 10 8 8 6 4 5
20 14 15 15 13 12 13 8 14 5 12 19 22 24 25 25 25 26 26 36 39 36 34 33 33 35 35 35 34 30 27 25 19 20 21 27 24 25 23 21 17 18 16 13 11 11 11 7 7
12 13 8 5 9 15 21 14 17 13 16 16 21 23 24 24 26 25 33 32 32 32 30 30 32 36 36 36 37 33 30 27 22 21 20 21 22 22 25 21 17 18 17 16 13 13 14 11 9
20 18 7 10 11 15 15 14 20 9 17 19 20 25 26 26 25 24 23 25 31 33 35 34 33 34 36 37 36 38 37 32 30 27 24 21 20 20 21 23 19 18 21 19 16 16 15 14 11
28 22 9 14 15 13 7 14 14 17 19 19 17 21 23 22 22 24 23 26 31 35 36 36 35 36 36 38 38 39 37 34 33 29 26 24 23 22 23 24 22 21 22 20 18 17 15 14 13
17 24 23 10 1 4 13 14 10 9 20 16 19 17 19 24 25 28 27 31 31 33 36 38 38 37 37 39 38 38 38 38 34 33 32 27 26 21 24 25 23 22 24 24 21 18 19 17 16
15 18 11 14 13 12 8 12 13 19 18 21 18 18 20 21 23 24 24 29 35 35 37 38 38 39 41 41 40 39 39 40 40 34 34 31 30 30 23 24 24 23 24 25 24 19 20 20 18
10 19 11 11 9 9 8 9 10 16 20 21 22 21 20 20 22 23 23 30 36 35 33 40 39 39 37 38 39 38 37 37 36 35 36 35 36 37 33 28 26 25 26 27 27 25 21 24 21
25 18 23 11 13 13 6 8 2 12 11 17 21 19 19 20 21 21 22 24 28 33 34 37 38 38 41 41 39 40 39 38 38 40 38 38 37 39 39 36 31 29 27 28 30 28 23 25 22
Wind_Direction
153 150 153 173 179 240 123 121 124 132 142 51 119 185 116 55 47 119 130 142 145 142 141 136 138 135 138 136 137 137 138 135 132 133 126 124 118 108 106 97 88 89 91 88 91 99 112 109 108
151 150 165 175 264 116 84 120 146 131 122 116 98 103 58 78 82 121 123 146 144 142 140 138 141 137 138 140 140 137 131 132 133 131 128 122 115 110 102 97 87 83 83 84 89 93 107 114 104
151 162 233 192 109 38 82 135 137 122 137 139 107 67 72 96 123 132 143 148 144 145 144 143 141 140 136 138 139 136 136 135 134 129 125 123 120 109 100 94 87 77 78 85 91 100 109 118 119
159 184 226 255 32 91 353 153 145 138 114 86 117 88 88 93 141 144 146 149 147 149 149 147 142 141 138 139 140 137 138 138 133 130 128 125 117 106 98 91 80 73 73 79 89 96 103 118 121
215 227 245 225 68 40 317 161 152 144 124 138 142 116 111 122 129 143 146 152 151 153 152 150 148 145 144 145 141 139 142 140 137 134 128 116 111 105 95 85 78 65 70 78 87 95 98 107 110
215 238 265 21 22 9 111 153 149 142 137 129 115 121 96 129 141 147 148 153 155 152 154 156 156 153 151 148 147 146 143 145 141 135 126 121 109 98 86 75 71 67 68 80 86 86 87 86 79
261 212 343 316 307 213 140 152 167 139 143 135 135 120 112 151 152 150 151 154 157 156 158 162 163 160 157 157 156 152 148 151 142 140 132 122 109 96 83 70 68 75 85 87 86 83 78 73 74
241 272 270 132 305 95 142 148 148 145 145 130 148 160 162 164 157 154 154 157 161 165 167 167 168 168 167 167 168 164 164 159 152 148 132 131 115 100 76 64 52 60 93 98 87 68 62 62 61
158 248 249 235 216 136 158 144 152 128 144 166 178 150 148 156 157 158 159 164 166 172 176 177 176 178 175 173 179 176 179 172 168 152 146 136 139 105 74 81 75 72 104 111 91 61 53 76 53
219 231 209 227 225 191 179 168 147 145 157 166 123 128 144 157 163 167 170 172 176 178 182 183 184 186 183 184 184 188 185 187 189 186 191 206 211 188 61 46 75 87 90 83 101 16 40 63 70
182 232 224 265 43 178 174 176 163 147 183 185 172 152 155 164 172 175 179 179 181 183 184 188 189 190 187 191 193 194 198 200 204 204 205 221 230 244 312 270 281 232 143 157 119 87 82 101 81
228 236 243 280 305 221 178 173 194 187 167 187 169 163 160 171 177 180 180 182 184 187 190 191 193 193 193 197 200 203 205 208 208 215 216 227 249 259 291 293 264 264 268 40 234 136 133 97 95
227 263 264 252 280 265 202 194 190 210 189 148 155 166 172 175 180 184 183 184 187 192 194 195 193 196 198 203 205 209 212 215 217 220 223 231 239 253 277 292 267 271 298 270 290 300 256 150 144
185 226 267 267 264 219 201 203 189 201 146 146 158 171 177 182 184 184 186 190 193 195 198 197 197 199 200 204 209 214 217 220 221 226 227 235 244 255 280 305 292 258 283 282 216 135 315 149 166
251 276 287 251 229 219 194 193 222 153 157 158 167 177 181 190 190 194 192 196 196 200 199 199 199 200 204 209 214 217 221 223 227 231 231 232 236 245 259 288 285 257 267 298 276 296 157 158 92
223 221 244 197 211 191 183 238 218 172 165 170 174 179 187 192 196 201 201 202 199 200 202 201 200 204 207 211 215 217 221 223 230 233 234 237 235 240 249 261 266 268 270 268 255 261 3 56 116
214 234 227 246 204 162 195 244 236 180 179 179 181 184 189 192 201 203 205 206 203 202 202 203 203 206 207 211 215 220 225 227 232 239 243 243 243 241 246 248 261 277 279 264 244 233 318 33 50
212 214 228 237 188 204 210 241 185 187 193 190 186 188 191 197 203 203 205 208 207 205 203 203 206 209 208 209 215 219 224 232 235 238 245 245 242 242 242 245 256 271 260 262 239 237 154 110 57
232 233 237 246 214 217 224 235 241 196 203 203 191 190 196 204 201 202 207 210 210 208 205 203 204 208 206 208 209 214 219 225 228 234 244 236 230 232 234 237 244 252 253 242 237 223 177 131 99
226 236 235 248 258 263 230 246 244 202 207 204 196 196 202 200 201 201 205 208 209 208 208 205 207 206 209 208 208 208 213 220 223 230 234 226 224 230 232 233 230 236 241 249 241 218 183 170 167
223 226 222 242 332 232 266 262 224 214 219 208 211 206 204 200 200 200 204 206 209 209 207 206 207 208 209 206 204 209 211 219 220 227 231 229 229 234 237 240 236 235 240 245 236 232 219 213 175
224 222 236 242 251 247 212 265 226 213 208 209 211 207 208 204 206 205 202 210 210 212 209 209 208 209 211 208 205 204 208 212 221 221 224 227 232 238 238 244 234 233 229 236 240 237 217 212 201
222 200 212 232 240 258 226 251 244 199 215 214 214 212 212 207 204 206 205 209 212 211 211 208 205 209 210 209 208 209 216 221 223 222 223 230 234 235 238 239 234 227 229 237 241 239 228 221 213
191 186 163 196 233 241 238 231 249 216 210 218 218 218 215 211 212 211 211 212 216 215 212 211 208 208 208 210 213 211 215 218 220 222 224 228 232 232 229 228 229 231 228 234 238 235 226 218 214
195 174 179 216 217 238 224 228 242 238 214 218 210 216 215 209 211 212 211 206 209 208 207 207 205 210 207 209 211 213 217 218 220 220 224 223 222 217 219 222 227 231 231 234 234 235 223 222 216
200 199 205 213 230 237 194 235 234 224 230 228 231 220 214 211 211 212 211 209 207 207 206 203 203 208 208 209 211 214 217 219 223 226 226 224 224 220 221 224 227 234 229 229 232 230 222 221 224
185 210 210 244 127 249 224 246 261 234 219 215 217 215 211 210 211 212 211 212 209 209 206 205 204 207 206 209 212 213 214 215 220 220 226 227 225 225 224 224 228 231 224 225 227 220 223 223 224
190 174 179 213 227 233 212 240 239 194 206 215 213 211 215 214 214 217 215 213 213 211 208 206 206 205 206 207 209 212 213 216 217 219 222 222 225 231 224 224 224 227 224 222 224 220 222 221 220
183 192 203 205 223 226 243 239 209 215 209 205 212 216 213 211 216 216 214 214 214 213 208 207 204 205 206 207 208 210 212 214 216 216 221 223 227 231 229 227 224 224 222 222 224 222 219 221 220
200 192 197 204 196 226 269 248 260 228 221 222 221 219 219 214 214 213 215 213 212 211 208 206 207 205 207 207 207 209 211 210 212 213 217 221 223 229 230 228 227 224 222 223 224 224 221 220 218